The Dalles, WA

6:41 AM PDT on September 20, 2017 (GMT -0700)
Columbia Gorge Regional-The Dalles

Weather History for KDLS - June, 2013

Change the Weather History Date:

Saturday, June 22, 2013

  Actual Average Record
Temperature  
Mean Temperature 70 °F -  
Max Temperature 86 °F 81 °F 108 °F (1992)
Min Temperature 55 °F 57 °F 44 °F (1963)
Cooling Degree Days 4    
Growing Degree Days 20 (Base 50)    
Moisture  
Dew Point 47 °F    
Average Humidity 47    
Maximum Humidity 75    
Minimum Humidity 21    
Precipitation  
Precipitation 0.00 in - - ()
Sea Level Pressure  
Sea Level Pressure 29.96 in    
Wind  
Wind Speed 5 mph (NNW)    
Max Wind Speed 9 mph    
Max Gust Speed 17 mph    
Visibility 10 miles    
Events      
Averages and records for this station are not official NWS values.
T = Trace of Precipitation, MM = Missing Value Source: NWS Daily Summary

Daily Weather History Graph

Daily Weather History Graph

Search for Another Location

Airport or City:

Trip Planner

Search our weather history database for the weather conditions in past years. The results will help you decide how hot, cold, wet, or windy it might be!

Date:

Astronomy

Jun. 22, 2013 Rise Set
Actual Time 5:15 AM PDT 8:57 PM PDT
Civil Twilight 4:37 AM PDT 9:35 PM PDT
Nautical Twilight 3:46 AM PDT 10:27 PM PDT
Astronomical Twilight 2:36 AM PDT 11:37 PM PDT
Moon 8:14 PM PDT (6/22) 4:37 AM PDT (6/22)
Length of Visible Light 16h 58m
Length of Day
15h 42m
Waxing Gibbous, 99% of the Moon is Illuminated
Jun 22
Waxing Gibbous
Jun 23
Full
Jun 29
Last Quarter
Jul 8
New
Jul 15
First Quarter

Hourly Weather History & Observations

Time (PDT) Temp. Dew Point Humidity Pressure Visibility Wind Dir Wind Speed Gust Speed Precip Events Conditions
12:53 AM 61.0 °F 48.9 °F 64% 30.09 in 10.0 mi NW 9.2 mph - N/A   Clear
1:53 AM 57.9 °F 48.0 °F 70% 30.08 in 10.0 mi Calm Calm - N/A   Clear
2:53 AM 55.9 °F 46.9 °F 72% 30.09 in 10.0 mi Calm Calm - N/A   Mostly Cloudy
3:53 AM 57.0 °F 46.9 °F 69% 30.08 in 10.0 mi West 4.6 mph - N/A   Overcast
4:53 AM 57.9 °F 48.0 °F 70% 30.07 in 10.0 mi NW 4.6 mph - N/A   Overcast
5:53 AM 57.0 °F 48.0 °F 72% 30.08 in 10.0 mi NW 4.6 mph - N/A   Overcast
6:53 AM 57.9 °F 50.0 °F 75% 30.08 in 10.0 mi NNW 5.8 mph - N/A   Clear
7:53 AM 61.0 °F 48.9 °F 64% 30.07 in 10.0 mi NNW 4.6 mph - N/A   Clear
8:53 AM 64.0 °F 48.9 °F 58% 30.06 in 10.0 mi NNW 5.8 mph - N/A   Clear
9:53 AM 68.0 °F 48.9 °F 50% 30.04 in 10.0 mi NNW 3.5 mph - N/A   Clear
10:53 AM 73.0 °F 46.9 °F 39% 30.02 in 10.0 mi Calm Calm - N/A   Clear
11:53 AM 77.0 °F 46.0 °F 33% 29.99 in 10.0 mi Variable 3.5 mph - N/A   Clear
12:53 PM 81.0 °F 45.0 °F 28% 29.96 in 10.0 mi NE 8.1 mph - N/A   Clear
1:53 PM 82.0 °F 43.0 °F 25% 29.93 in 10.0 mi NE 9.2 mph - N/A   Clear
2:53 PM 84.0 °F 41.0 °F 22% 29.91 in 10.0 mi Variable 3.5 mph - N/A   Clear
3:53 PM 84.9 °F 41.0 °F 21% 29.88 in 10.0 mi Variable 5.8 mph 17.3 mph N/A   Clear
4:53 PM 84.0 °F 39.9 °F 21% 29.86 in 10.0 mi NNE 5.8 mph - N/A   Clear
5:53 PM 84.0 °F 41.0 °F 22% 29.84 in 10.0 mi NW 4.6 mph - N/A   Clear
6:53 PM 82.9 °F 42.1 °F 24% 29.83 in 10.0 mi Variable 3.5 mph - N/A   Clear
7:53 PM 77.0 °F 48.0 °F 36% 29.83 in 10.0 mi NNW 6.9 mph - N/A   Clear
8:53 PM 75.0 °F 48.9 °F 40% 29.83 in 10.0 mi NNW 5.8 mph - N/A   Clear
9:53 PM 71.1 °F 50.0 °F 47% 29.84 in 10.0 mi NNW 5.8 mph - N/A   Clear
10:53 PM 71.1 °F 50.0 °F 47% 29.84 in 10.0 mi NW 3.5 mph - N/A   Clear
11:53 PM 69.1 °F 50.0 °F 51% 29.84 in 10.0 mi NW 3.5 mph - N/A   Scattered Clouds